SCP
0 0 0 -0 -0 -0 -0 -0 -0 -0 0 0 0 0 0 0 0 0 0 0 0 0 0 0 0 0 0 0 0 0 -0 -0 -0 -0 -0 -0 -0 0 0 0 0 0 0
0 0 0 -0 -0 -0 -0 -0 -0 -0 -0 0 0 0 0 0 0 0 0 0 0 0 0 0 0 0 0 0 0 0 0 0 -0 -0 -0 0 0 0 0 0 0 0 0
0 0 0 0 0 0 -0 0 0 -0 0 0 0 0 0 0 0 0 0 0 0 0 0 0 0 0 0 0 0 0 0 0 0 -0 -0 -0 0 0 0 0 0 0 0
0 0 0 0 0 0 0 0 0 0 0 0 0 0 0 0 0 0 0 0 0 0 0 0 0 0 0 0 0 0 0 0 0 -0 -0 -0 0 0 0 0 0 0 0
0 0 0 0 0 0 0 0 0 0 0 0 0 0 0 0 0 0 0 0 0 0 0 0 0 0 0 0 0 0 0 0 0 0 -0 -0 -0 0 0 0 0 0 0
0 0 0 0 0 0 0 0 0 0 0 0 0 0 0 0 0 0 0 0 0 0 0 0 0 0 0 0 0 0 0 0 0 -0 -0 0 0 0 0 0 0 0 0
0 0 0 0 0 0 0 0 0 0 0 0 0 0 0 0 0 0 0 0 0 0 0 0 0 0 0 0 0 0 0 0 0 0 0 0 0 0 0 0 -0 -0 0
0 0 0 0 0 0 0 0 0 0 0 0 0 0 0 0 0 0 0 0 0 0 0 0 0 0 0 0 0 0 0 0 0 0 0 0 0 0 0 0 0 -0 -0
0 0 0 0 0 0 0 0 0 0 0 0 0 0 0 0 0 0 0 0 0 0 0 0 0 0 0 0 0 0 0 0 0 0 0 0 0 0 0 0 0 -0 0
0 0 0 0 0 0 0 0 0 0 0 0 0 0 0 0 0 0 0 0 0 0 0 0 0 0 0 0 0 0 0 0 0 0 0 0 0 0 0 0 0 0 0
0 0 0 0 0 0 0 0 0 0 0 0 0 0 0 0 0 0 0 0 0 0 0 0 0 0 0 0 0 0 0 0 0 0 0 0 0 0 0 0 0 0 0
0 0 0 0 0 0 0 0 0 0 0 0 0 0 0 0 0 0 0 0 0 0 0 0 0 0 0 0 0 0 0 0 0 0 0 0 0 0 0 0 0 0 0
0 0 0 0 0 0 0 0 0 0 0 0 0 0 0 0 0 0 0 0 0 0 0 0 0 0 0 0 0 0 0 0 0 0 0 0 0 0 0 0 0 0 0
0 0 0 0 0 0 0 0 0 0 0 0 0 0 0 0 0 0 0 0 0 0 0 0 0 0 0 0 0 0 0 0 0 0 0 0 0 0 0 0 0 0 0
0 0 0 0 0 0 0 0 0 0 0 0 0 0 0 0 0 0 0 0 0 0 0 0 0 0 0 0 0 0 0 0 0 0 0 0 0 0 0 0 0 0 0
0 0 0 0 0 0 0 0 0 0 0 0 0 0 0 0 0 0 0 0 0 0 0 0 0 0 0 0 0 0 0 0 0 0 0 0 0 0 0 0 0 0 0
0 0 0 0 0 0 0 0 0 0 0 0 0 0 0 0 0 0 0 0 0 0 0 0 0 0 0 0 0 0 0 0 0 0 0 0 0 0 0 0 0 0 0
0 0 0 0 0 0 0 0 0 0 0 0 0 0 0 0 0 0 0 0 0 0 0 0 0 0 0 0 0 0 0 0 0 0 0 0 0 0 0 0 0 0 0
0 0 0 0 0 0 0 0 0 0 0 0 0 0 0 0 0 0 0 0 0 0 0 0 0 0 0 0 0 0 0 0 0 0 0 0 0 0 0 0 0 0 0
0 0 0 0 0 0 0 0 0 0 0 0 0 0 0 0 0 0 0 0 0 0 0 0 0 0 0 0 0 0 0 0 0 0 0 0 0 0 0 0 0 0 0
0 0 0 0 0 0 0 0 0 0 0 0 0 0 0 0 0 0 0 0 0 0 0 0 0 0 0 0 0 0 0 0 0 0 0 0 0 0 0 0 0 0 0
0 0 0 0 0 0 0 0 0 0 0 0 0 0 0 0 0 0 0 0 0 0 0 0 0 0 0 0 0 -0 0 0 0 0 0 0 0 0 0 0 0 0 0
0 0 0 0 0 0 0 0 0 0 0 0 0 0 0 0 0 0 0 0 0 0 0 0 0 0 0 -0 0 -0 -0 0 0 0 0 0 0 0 0 0 0 0 0
0 0 0 0 0 0 0 0 0 0 0 0 0 0 0 0 0 0 0 0 0 0 0 0 0 0 0 0 -0 -0 -0 -0 -0 -0 0 0 0 0 0 0 0 0 0
0 0 0 0 0 0 0 0 0 0 0 0 0 0 0 0 0 0 0 0 0 0 0 0 0 0 0 0 0 0 0 -0 0 -0 -0 0 0 -0 0 0 0 0 0
0 0 0 0 0 0 0 0 0 0 0 0 0 0 0 0 0 0 0 0 0 0 0 0 0 0 0 0 0 0 0 0 0 0 0 0 0 0 -0 -0 -0 -0 -0
Wind_Speed_500mb
3 2 10 7 9 7 7 6 3 2 5 5 5 3 3 4 4 6 8 9 8 9 10 11 10 11 12 13 12 13 18 18 17 16 14 14 8 11 12 13 15 5 8
3 2 5 4 3 2 2 3 2 3 2 1 2 3 6 7 6 7 10 12 13 13 14 13 12 13 13 13 12 11 12 15 15 14 12 14 7 8 11 10 8 13 11
4 2 5 3 1 2 3 6 8 9 7 6 5 6 6 6 8 12 12 13 15 16 16 15 13 14 14 15 14 12 11 13 14 12 9 11 13 13 14 15 11 11 12
3 3 4 5 5 8 10 9 12 12 12 13 13 13 13 12 11 10 14 15 16 17 16 15 17 18 15 15 16 15 13 13 16 14 8 5 7 18 15 13 13 13 14
3 3 3 4 6 9 11 11 11 12 16 17 18 20 21 18 19 20 20 19 19 20 18 17 15 17 16 15 18 19 19 17 18 19 6 12 10 22 21 16 16 16 15
1 4 5 8 10 13 16 17 18 17 17 20 22 24 24 26 27 27 27 26 25 26 24 23 22 19 18 18 17 19 23 19 22 23 11 19 27 25 23 20 18 22 20
3 6 9 12 15 17 20 22 23 25 25 25 25 27 30 32 30 30 31 30 31 31 30 29 27 27 23 23 25 17 21 22 25 19 17 23 22 33 27 26 24 22 22
5 9 12 15 18 22 25 27 28 29 29 29 29 30 31 33 34 36 35 36 34 35 35 34 32 30 31 29 26 29 27 29 32 28 24 27 28 34 30 32 30 26 24
6 11 14 17 21 23 25 27 28 30 30 31 32 33 32 33 33 34 37 40 37 35 33 33 36 35 33 33 33 32 33 36 36 30 29 31 30 40 34 33 36 33 31
7 12 16 19 20 22 25 26 27 27 28 29 28 28 29 32 33 35 34 34 34 36 36 36 32 29 33 36 34 35 36 38 39 37 35 35 42 42 41 40 38 39 37
9 10 14 17 18 20 22 23 24 24 23 21 21 21 22 25 26 29 31 34 36 36 38 39 36 31 29 32 37 34 33 30 25 28 26 33 42 49 45 44 41 42 42
11 11 12 16 15 17 18 18 18 18 18 17 16 15 16 18 20 23 24 25 27 29 33 35 34 32 31 33 31 30 33 36 34 34 28 37 43 43 44 42 43 42 44
10 14 18 16 15 14 12 11 11 12 12 13 13 12 11 12 12 14 17 19 20 21 24 25 28 32 33 33 34 34 37 39 39 40 41 42 45 44 40 38 41 44 45
11 11 11 11 11 10 9 10 11 12 13 14 16 15 14 14 14 14 14 14 14 15 16 18 20 23 24 26 29 30 31 30 31 36 38 44 49 47 46 44 43 42 44
11 8 6 4 1 2 5 8 10 12 14 17 17 18 18 20 20 21 21 20 21 21 19 19 18 16 16 19 23 26 27 29 28 29 30 35 34 41 46 49 48 46 39
9 7 4 5 6 8 9 10 13 16 19 21 24 25 24 24 24 24 24 24 23 23 23 23 23 21 21 20 18 18 18 20 20 16 14 29 36 34 30 29 37 41 47
9 8 9 11 12 13 15 16 19 21 22 24 27 28 29 29 30 30 31 31 31 31 30 29 27 25 23 20 17 18 18 15 12 12 12 22 27 28 31 34 34 41 40
12 12 12 14 14 14 15 16 17 18 19 22 23 25 27 27 29 30 31 32 33 33 33 33 33 33 33 29 21 17 17 13 20 18 18 20 25 28 30 32 37 40 44
19 16 14 13 12 11 12 13 14 15 17 19 21 23 25 27 29 29 31 32 33 35 36 36 36 37 39 35 22 17 15 13 27 19 21 23 29 28 29 28 28 30 36
23 20 18 15 12 10 10 10 11 12 14 16 18 21 23 25 27 28 29 31 32 33 34 35 36 37 41 41 26 17 13 6 33 22 30 31 39 35 35 36 33 31 31
26 22 19 16 13 11 9 7 7 9 12 15 17 20 22 24 26 28 30 31 33 35 38 39 39 39 42 43 32 24 14 9 37 25 25 34 47 45 44 44 43 43 40
29 25 21 17 15 12 11 9 8 10 13 15 18 20 22 24 27 30 32 34 36 37 39 42 44 45 43 48 47 20 14 4 33 19 28 33 50 48 50 48 51 48 52
32 29 24 20 16 14 11 9 9 10 16 15 17 19 23 25 28 31 32 34 36 37 40 42 43 44 41 42 42 30 12 11 32 16 29 34 53 50 50 40 49 48 58
36 33 29 25 20 16 12 9 11 8 5 10 14 19 22 24 27 29 30 32 33 35 37 40 40 41 39 39 32 29 20 16 13 21 32 24 52 52 54 41 50 47 58
39 38 34 29 25 20 14 11 9 7 8 10 14 17 20 22 25 28 30 30 31 34 35 36 36 37 36 34 33 31 26 20 13 19 25 51 52 43 47 46 52 53 66
40 40 37 33 29 23 17 12 8 5 8 11 14 15 18 20 24 27 29 30 31 32 33 34 34 34 34 31 29 28 27 24 27 23 35 47 51 58 32 37 49 56 68
Wind_Direction_500mb
226 23 92 124 102 101 100 79 52 98 81 82 40 2 4 335 315 301 299 298 303 317 321 337 328 298 321 333 343 358 11 19 24 35 41 44 57 34 34 41 70 327 9
147 31 63 85 161 147 24 202 248 243 284 22 52 2 311 308 310 303 296 296 297 293 295 311 316 321 297 303 312 329 355 5 14 18 27 42 20 358 347 342 324 319 332
111 53 1 10 325 274 315 316 281 262 252 275 284 294 306 313 312 310 296 287 289 290 290 285 306 306 308 289 290 300 320 343 354 3 23 70 309 336 340 336 324 331 336
61 35 346 346 314 311 306 299 284 293 276 265 274 273 276 287 282 285 294 299 299 294 291 292 283 288 297 292 285 281 291 319 331 339 0 307 277 306 332 335 336 333 339
8 350 355 338 329 332 336 339 330 300 281 282 281 282 283 278 273 276 283 290 292 295 298 290 283 275 282 283 271 280 278 290 313 321 337 279 277 283 313 322 323 323 327
253 300 316 313 317 318 318 316 313 309 303 285 273 276 282 281 284 281 281 281 285 283 283 286 284 280 265 268 277 270 270 268 298 316 293 284 285 260 292 309 304 306 306
321 320 318 313 313 309 305 303 300 298 295 288 280 276 273 275 277 281 283 280 280 282 283 281 278 275 275 267 266 266 267 282 287 297 283 279 275 279 291 294 300 306 295
327 325 324 320 314 308 305 303 300 296 291 287 283 279 275 272 270 267 271 277 277 278 280 280 279 277 272 269 267 263 262 270 276 288 277 271 278 284 295 289 290 294 296
326 321 324 323 320 316 313 311 307 302 294 288 285 283 282 280 276 270 266 267 271 277 283 290 283 275 273 269 263 260 262 267 272 267 264 271 274 284 293 295 284 283 285
330 323 324 325 326 325 323 320 316 310 306 297 290 285 281 279 280 278 277 273 273 276 275 284 287 291 277 269 267 265 266 270 276 286 293 277 279 282 291 295 293 280 278
316 320 318 325 328 330 330 328 327 326 320 312 305 294 283 280 279 278 276 276 277 279 281 281 280 280 282 280 270 271 275 280 265 261 273 285 279 280 289 289 288 287 279
319 321 328 326 328 329 330 331 332 332 330 329 323 311 299 292 288 286 286 285 284 285 283 281 281 278 272 271 273 274 271 274 263 263 263 262 271 284 291 294 291 285 284
309 320 318 329 337 340 343 346 347 351 357 360 360 354 349 340 328 313 304 298 293 288 287 286 282 278 278 278 276 272 269 270 273 272 267 272 279 278 285 288 290 291 285
279 285 292 308 325 343 357 9 22 31 35 36 38 37 39 35 28 20 11 3 350 341 329 314 302 294 292 291 284 280 278 278 277 273 269 267 266 271 276 282 284 287 285
266 272 272 268 286 35 41 48 49 51 48 46 44 44 44 48 46 42 37 32 29 24 19 15 4 352 334 311 298 292 286 280 280 284 285 282 278 274 272 269 269 270 280
236 216 176 118 97 84 77 71 67 62 59 57 56 54 52 52 49 46 41 36 32 27 21 16 10 7 4 356 347 334 319 299 299 307 322 295 283 285 279 278 273 275 270
215 177 149 129 113 102 93 85 79 73 68 64 61 57 56 54 55 51 48 44 41 39 36 35 31 25 14 2 353 360 4 9 358 358 313 296 296 293 292 295 292 290 296
192 173 151 130 115 106 95 84 75 68 63 59 56 53 51 49 49 46 45 42 40 38 36 36 34 34 28 17 15 14 30 18 39 31 1 343 333 323 313 307 301 293 295
188 175 164 149 132 112 93 79 68 59 53 49 45 42 40 39 38 37 36 34 32 30 27 27 26 26 24 23 30 18 46 51 41 29 21 10 5 355 348 339 332 321 307
190 182 173 167 154 135 106 81 65 55 49 44 40 37 34 34 34 34 33 31 30 29 28 26 24 26 25 22 34 48 40 79 26 25 29 28 17 14 9 2 355 351 345
194 188 180 173 167 157 131 98 76 63 54 45 40 36 32 32 31 31 30 28 27 27 26 25 25 23 24 28 39 58 28 30 12 30 24 17 20 20 15 14 10 6 5
200 194 188 181 174 163 152 135 110 74 58 48 40 35 33 32 31 30 29 28 27 26 24 24 24 26 24 24 28 39 10 29 351 16 358 1 10 14 15 14 13 14 10
202 200 194 189 181 170 154 130 93 66 46 34 36 35 34 31 30 28 27 25 24 23 22 22 22 23 25 24 28 40 11 349 353 314 349 357 353 6 11 8 11 8 6
204 203 199 195 190 182 168 129 110 122 73 44 39 34 31 28 26 24 24 23 22 22 21 21 20 21 22 21 24 31 25 3 343 324 337 342 349 357 2 4 6 4 2
203 205 203 200 197 191 179 153 127 97 66 47 37 31 25 22 21 19 19 19 19 19 18 16 16 16 16 15 14 9 7 20 335 326 323 333 345 355 357 1 0 357 357
202 206 206 206 204 200 192 175 144 98 49 37 28 21 16 15 13 13 13 13 13 12 11 10 9 8 8 7 5 2 359 1 339 341 325 334 334 347 13 346 346 353 352
Wind_Speed_850mb
3 2 10 7 9 7 7 6 3 2 5 5 5 3 3 4 4 6 8 9 8 9 10 11 10 11 12 13 12 13 18 18 17 16 14 14 8 11 12 13 15 5 8
3 2 5 4 3 2 2 3 2 3 2 1 2 3 6 7 6 7 10 12 13 13 14 13 12 13 13 13 12 11 12 15 15 14 12 14 7 8 11 10 8 13 11
4 2 5 3 1 2 3 6 8 9 7 6 5 6 6 6 8 12 12 13 15 16 16 15 13 14 14 15 14 12 11 13 14 12 9 11 13 13 14 15 11 11 12
3 3 4 5 5 8 10 9 12 12 12 13 13 13 13 12 11 10 14 15 16 17 16 15 17 18 15 15 16 15 13 13 16 14 8 5 7 18 15 13 13 13 14
3 3 3 4 6 9 11 11 11 12 16 17 18 20 21 18 19 20 20 19 19 20 18 17 15 17 16 15 18 19 19 17 18 19 6 12 10 22 21 16 16 16 15
1 4 5 8 10 13 16 17 18 17 17 20 22 24 24 26 27 27 27 26 25 26 24 23 22 19 18 18 17 19 23 19 22 23 11 19 27 25 23 20 18 22 20
3 6 9 12 15 17 20 22 23 25 25 25 25 27 30 32 30 30 31 30 31 31 30 29 27 27 23 23 25 17 21 22 25 19 17 23 22 33 27 26 24 22 22
5 9 12 15 18 22 25 27 28 29 29 29 29 30 31 33 34 36 35 36 34 35 35 34 32 30 31 29 26 29 27 29 32 28 24 27 28 34 30 32 30 26 24
6 11 14 17 21 23 25 27 28 30 30 31 32 33 32 33 33 34 37 40 37 35 33 33 36 35 33 33 33 32 33 36 36 30 29 31 30 40 34 33 36 33 31
7 12 16 19 20 22 25 26 27 27 28 29 28 28 29 32 33 35 34 34 34 36 36 36 32 29 33 36 34 35 36 38 39 37 35 35 42 42 41 40 38 39 37
9 10 14 17 18 20 22 23 24 24 23 21 21 21 22 25 26 29 31 34 36 36 38 39 36 31 29 32 37 34 33 30 25 28 26 33 42 49 45 44 41 42 42
11 11 12 16 15 17 18 18 18 18 18 17 16 15 16 18 20 23 24 25 27 29 33 35 34 32 31 33 31 30 33 36 34 34 28 37 43 43 44 42 43 42 44
10 14 18 16 15 14 12 11 11 12 12 13 13 12 11 12 12 14 17 19 20 21 24 25 28 32 33 33 34 34 37 39 39 40 41 42 45 44 40 38 41 44 45
11 11 11 11 11 10 9 10 11 12 13 14 16 15 14 14 14 14 14 14 14 15 16 18 20 23 24 26 29 30 31 30 31 36 38 44 49 47 46 44 43 42 44
11 8 6 4 1 2 5 8 10 12 14 17 17 18 18 20 20 21 21 20 21 21 19 19 18 16 16 19 23 26 27 29 28 29 30 35 34 41 46 49 48 46 39
9 7 4 5 6 8 9 10 13 16 19 21 24 25 24 24 24 24 24 24 23 23 23 23 23 21 21 20 18 18 18 20 20 16 14 29 36 34 30 29 37 41 47
9 8 9 11 12 13 15 16 19 21 22 24 27 28 29 29 30 30 31 31 31 31 30 29 27 25 23 20 17 18 18 15 12 12 12 22 27 28 31 34 34 41 40
12 12 12 14 14 14 15 16 17 18 19 22 23 25 27 27 29 30 31 32 33 33 33 33 33 33 33 29 21 17 17 13 20 18 18 20 25 28 30 32 37 40 44
19 16 14 13 12 11 12 13 14 15 17 19 21 23 25 27 29 29 31 32 33 35 36 36 36 37 39 35 22 17 15 13 27 19 21 23 29 28 29 28 28 30 36
23 20 18 15 12 10 10 10 11 12 14 16 18 21 23 25 27 28 29 31 32 33 34 35 36 37 41 41 26 17 13 6 33 22 30 31 39 35 35 36 33 31 31
26 22 19 16 13 11 9 7 7 9 12 15 17 20 22 24 26 28 30 31 33 35 38 39 39 39 42 43 32 24 14 9 37 25 25 34 47 45 44 44 43 43 40
29 25 21 17 15 12 11 9 8 10 13 15 18 20 22 24 27 30 32 34 36 37 39 42 44 45 43 48 47 20 14 4 33 19 28 33 50 48 50 48 51 48 52
32 29 24 20 16 14 11 9 9 10 16 15 17 19 23 25 28 31 32 34 36 37 40 42 43 44 41 42 42 30 12 11 32 16 29 34 53 50 50 40 49 48 58
36 33 29 25 20 16 12 9 11 8 5 10 14 19 22 24 27 29 30 32 33 35 37 40 40 41 39 39 32 29 20 16 13 21 32 24 52 52 54 41 50 47 58
39 38 34 29 25 20 14 11 9 7 8 10 14 17 20 22 25 28 30 30 31 34 35 36 36 37 36 34 33 31 26 20 13 19 25 51 52 43 47 46 52 53 66
40 40 37 33 29 23 17 12 8 5 8 11 14 15 18 20 24 27 29 30 31 32 33 34 34 34 34 31 29 28 27 24 27 23 35 47 51 58 32 37 49 56 68
Wind_Direction_850mb
226 23 92 124 102 101 100 79 52 98 81 82 40 2 4 335 315 301 299 298 303 317 321 337 328 298 321 333 343 358 11 19 24 35 41 44 57 34 34 41 70 327 9
147 31 63 85 161 147 24 202 248 243 284 22 52 2 311 308 310 303 296 296 297 293 295 311 316 321 297 303 312 329 355 5 14 18 27 42 20 358 347 342 324 319 332
111 53 1 10 325 274 315 316 281 262 252 275 284 294 306 313 312 310 296 287 289 290 290 285 306 306 308 289 290 300 320 343 354 3 23 70 309 336 340 336 324 331 336
61 35 346 346 314 311 306 299 284 293 276 265 274 273 276 287 282 285 294 299 299 294 291 292 283 288 297 292 285 281 291 319 331 339 0 307 277 306 332 335 336 333 339
8 350 355 338 329 332 336 339 330 300 281 282 281 282 283 278 273 276 283 290 292 295 298 290 283 275 282 283 271 280 278 290 313 321 337 279 277 283 313 322 323 323 327
253 300 316 313 317 318 318 316 313 309 303 285 273 276 282 281 284 281 281 281 285 283 283 286 284 280 265 268 277 270 270 268 298 316 293 284 285 260 292 309 304 306 306
321 320 318 313 313 309 305 303 300 298 295 288 280 276 273 275 277 281 283 280 280 282 283 281 278 275 275 267 266 266 267 282 287 297 283 279 275 279 291 294 300 306 295
327 325 324 320 314 308 305 303 300 296 291 287 283 279 275 272 270 267 271 277 277 278 280 280 279 277 272 269 267 263 262 270 276 288 277 271 278 284 295 289 290 294 296
326 321 324 323 320 316 313 311 307 302 294 288 285 283 282 280 276 270 266 267 271 277 283 290 283 275 273 269 263 260 262 267 272 267 264 271 274 284 293 295 284 283 285
330 323 324 325 326 325 323 320 316 310 306 297 290 285 281 279 280 278 277 273 273 276 275 284 287 291 277 269 267 265 266 270 276 286 293 277 279 282 291 295 293 280 278
316 320 318 325 328 330 330 328 327 326 320 312 305 294 283 280 279 278 276 276 277 279 281 281 280 280 282 280 270 271 275 280 265 261 273 285 279 280 289 289 288 287 279
319 321 328 326 328 329 330 331 332 332 330 329 323 311 299 292 288 286 286 285 284 285 283 281 281 278 272 271 273 274 271 274 263 263 263 262 271 284 291 294 291 285 284
309 320 318 329 337 340 343 346 347 351 357 360 360 354 349 340 328 313 304 298 293 288 287 286 282 278 278 278 276 272 269 270 273 272 267 272 279 278 285 288 290 291 285
279 285 292 308 325 343 357 9 22 31 35 36 38 37 39 35 28 20 11 3 350 341 329 314 302 294 292 291 284 280 278 278 277 273 269 267 266 271 276 282 284 287 285
266 272 272 268 286 35 41 48 49 51 48 46 44 44 44 48 46 42 37 32 29 24 19 15 4 352 334 311 298 292 286 280 280 284 285 282 278 274 272 269 269 270 280
236 216 176 118 97 84 77 71 67 62 59 57 56 54 52 52 49 46 41 36 32 27 21 16 10 7 4 356 347 334 319 299 299 307 322 295 283 285 279 278 273 275 270
215 177 149 129 113 102 93 85 79 73 68 64 61 57 56 54 55 51 48 44 41 39 36 35 31 25 14 2 353 360 4 9 358 358 313 296 296 293 292 295 292 290 296
192 173 151 130 115 106 95 84 75 68 63 59 56 53 51 49 49 46 45 42 40 38 36 36 34 34 28 17 15 14 30 18 39 31 1 343 333 323 313 307 301 293 295
188 175 164 149 132 112 93 79 68 59 53 49 45 42 40 39 38 37 36 34 32 30 27 27 26 26 24 23 30 18 46 51 41 29 21 10 5 355 348 339 332 321 307
190 182 173 167 154 135 106 81 65 55 49 44 40 37 34 34 34 34 33 31 30 29 28 26 24 26 25 22 34 48 40 79 26 25 29 28 17 14 9 2 355 351 345
194 188 180 173 167 157 131 98 76 63 54 45 40 36 32 32 31 31 30 28 27 27 26 25 25 23 24 28 39 58 28 30 12 30 24 17 20 20 15 14 10 6 5
200 194 188 181 174 163 152 135 110 74 58 48 40 35 33 32 31 30 29 28 27 26 24 24 24 26 24 24 28 39 10 29 351 16 358 1 10 14 15 14 13 14 10
202 200 194 189 181 170 154 130 93 66 46 34 36 35 34 31 30 28 27 25 24 23 22 22 22 23 25 24 28 40 11 349 353 314 349 357 353 6 11 8 11 8 6
204 203 199 195 190 182 168 129 110 122 73 44 39 34 31 28 26 24 24 23 22 22 21 21 20 21 22 21 24 31 25 3 343 324 337 342 349 357 2 4 6 4 2
203 205 203 200 197 191 179 153 127 97 66 47 37 31 25 22 21 19 19 19 19 19 18 16 16 16 16 15 14 9 7 20 335 326 323 333 345 355 357 1 0 357 357
202 206 206 206 204 200 192 175 144 98 49 37 28 21 16 15 13 13 13 13 13 12 11 10 9 8 8 7 5 2 359 1 339 341 325 334 334 347 13 346 346 353 352